C31FR-13 Weather Reports


Display with metric or nautical units.
time (UTC)temp
F
wind
direction
speed
MPH
gust
MPH
rain 1hr
in
rain 24hr
in
rain mn
in
humidity
%
barometer
mb
20260506124102 58 0.0 0.0 0.00 0.00 0.00 46 1009.9
20260506123603 59 0.0 0.0 0.00 0.00 0.00 45 1009.9
20260506123102 58 0.0 0.0 0.00 0.00 0.00 43 1009.9
20260506122602 58 0.0 0.0 0.00 0.00 0.00 45 1010.0
20260506122102 58 0.0 0.0 0.00 0.00 0.00 45 1010.0
20260506121602 57 0.0 0.0 0.00 0.00 0.00 46 1010.0
20260506121102 57 0.0 0.0 0.00 0.00 0.00 46 1010.0
20260506120603 57 0.0 0.0 0.00 0.00 0.00 45 1010.0
20260506115602 58 0.0 0.0 0.00 0.00 0.00 45 1009.9
20260506115103 57 0.0 0.0 0.00 0.00 0.00 45 1010.0
20260506114102 57 0.0 0.0 0.00 0.00 0.00 45 1010.1
20260506113603 57 0.0 0.0 0.00 0.00 0.00 45 1010.1
20260506113102 57 0.0 0.0 0.00 0.00 0.00 45 1010.1
20260506112602 57 0.0 0.0 0.00 0.00 0.00 46 1010.2
20260506112102 56 0.0 0.0 0.00 0.00 0.00 47 1010.2
20260506111602 56 0.0 0.0 0.00 0.00 0.00 46 1010.2
20260506111102 56 0.0 0.0 0.00 0.00 0.00 46 1010.2
20260506110602 56 0.0 0.0 0.00 0.00 0.00 47 1010.3
20260506110103 56 0.0 0.0 0.00 0.00 0.00 48 1010.4
20260506105603 56 0.0 0.0 0.00 0.00 0.00 47 1010.4
20260506105102 56 0.0 0.0 0.00 0.00 0.00 47 1010.4
20260506104603 56 0.0 0.0 0.00 0.00 0.00 47 1010.4
20260506104103 56 0.0 0.0 0.00 0.00 0.00 47 1010.4
20260506103602 56 0.0 0.0 0.00 0.00 0.00 46 1010.4
20260506103103 57 0.0 0.0 0.00 0.00 0.00 46 1010.5
20260506102102 58 0.0 0.0 0.00 0.00 0.00 47 1010.5
20260506101602 58 0.0 0.0 0.00 0.00 0.00 47 1010.6
20260506101103 58 0.0 0.0 0.00 0.00 0.00 48 1010.6
20260506095603 57 0.0 0.0 0.00 0.00 0.00 51 1010.7
20260506095103 57 0.0 0.0 0.00 0.00 0.00 51 1010.8
20260506094102 57 0.0 0.0 0.00 0.00 0.00 52 1010.8
20260506093603 56 0.0 0.0 0.00 0.00 0.00 52 1010.8
20260506092602 55 0.0 0.0 0.00 0.00 0.00 53 1010.9
20260506091602 53 0.0 0.0 0.00 0.00 0.00 54 1010.9
20260506091103 52 0.0 0.0 0.00 0.00 0.00 55 1010.9
20260506090603 52 0.0 0.0 0.00 0.00 0.00 57 1010.9
20260506085603 52 0.0 0.0 0.00 0.00 0.00 57 1011.1
20260506085102 52 0.0 0.0 0.00 0.00 0.00 61 1011.2
20260506084103 51 0.0 0.0 0.00 0.00 0.00 61 1011.2
20260506083603 51 0.0 0.0 0.00 0.00 0.00 61 1011.1
20260506083102 51 0.0 0.0 0.00 0.00 0.00 62 1011.1
20260506082103 50 0.0 0.0 0.00 0.00 0.00 64 1011.2
20260506081103 51 0.0 0.0 0.00 0.00 0.00 63 1011.3
20260506080604 51 0.0 0.0 0.00 0.00 0.00 62 1011.3
20260506073102 49 0.0 0.0 0.00 0.00 0.00 67 1011.5
20260506072602 49 0.0 0.0 0.00 0.00 0.00 68 1011.5
20260506072102 49 0.0 0.0 0.00 0.00 0.00 68 1011.5
20260506071603 49 0.0 0.0 0.00 0.00 0.00 69 1011.6
20260506071103 49 0.0 0.0 0.00 0.00 0.00 70 1011.5
20260506070603 49 0.0 0.0 0.00 0.00 0.00 69 1011.5
20260506062103 48 0.0 0.0 0.00 0.00 0.00 75 1011.5
20260506061603 48 0.0 0.0 0.00 0.00 0.00 76 1011.5
20260506061102 47 0.0 0.0 0.00 0.00 0.00 76 1011.5
20260506060604 47 0.0 0.0 0.00 0.00 0.00 78 1011.6
20260506051103 46 0.0 0.0 0.00 0.00 0.00 79 1011.2
20260506050602 46 0.0 0.0 0.00 0.00 0.00 80 1011.1
20260506045102 46 0.0 0.0 0.00 0.00 0.00 82 1011.1
20260506044602 45 0.0 0.0 0.00 0.00 0.00 84 1011.1
20260506044103 45 0.0 0.0 0.00 0.00 0.00 85 1011.1
20260506043602 46 0.0 0.0 0.00 0.00 0.00 82 1011.0
20260506043103 47 0.0 0.0 0.00 0.00 0.00 80 1011.0
20260506042604 47 0.0 0.0 0.00 0.00 0.00 80 1011.0
20260506042103 47 0.0 0.0 0.00 0.00 0.00 81 1010.9
20260506041602 46 0.0 0.0 0.00 0.00 0.00 81 1010.9
20260506040602 48 0.0 0.0 0.00 0.00 0.00 77 1010.7
20260506035602 46 0.0 0.0 0.00 0.00 0.00 82 1010.8
20260506035103 47 0.0 0.0 0.00 0.00 0.00 81 1010.7
20260506034603 48 0.0 0.0 0.00 0.00 0.00 78 1010.8
20260506034102 48 0.0 0.0 0.00 0.00 0.00 76 1010.8
20260506033602 48 0.0 0.0 0.00 0.00 0.00 78 1010.8
20260506033102 47 0.0 0.0 0.00 0.00 0.00 78 1010.8
20260506032603 49 0.0 0.0 0.00 0.00 0.00 75 1010.8
20260506032102 48 0.0 0.0 0.00 0.00 0.00 76 1010.8
20260506031603 48 0.0 0.0 0.00 0.00 0.00 77 1010.8
20260506031103 48 0.0 0.0 0.00 0.00 0.00 78 1010.9
20260506030602 48 0.0 0.0 0.00 0.00 0.00 80 1010.8
20260506030107 49 0.0 0.0 0.00 0.00 0.00 78 1010.8
20260506025602 49 0.0 0.0 0.00 0.00 0.00 78 1010.8
20260506025102 48 0.0 0.0 0.00 0.00 0.00 79 1010.8
20260506024602 47 0.0 0.0 0.00 0.00 0.00 82 1010.9
20260506024103 47 0.0 0.0 0.00 0.00 0.00 82 1010.9
20260506023604 47 0.0 0.0 0.00 0.00 0.00 82 1010.9
20260506023103 48 0.0 0.0 0.00 0.00 0.00 79 1010.9
20260506022602 47 0.0 0.0 0.00 0.00 0.00 81 1010.9
20260506022103 47 0.0 0.0 0.00 0.00 0.00 82 1010.9
20260506021602 47 0.0 0.0 0.00 0.00 0.00 83 1010.9
20260506021103 47 0.0 0.0 0.00 0.00 0.00 83 1010.9
20260506020602 47 0.0 0.0 0.00 0.00 0.00 83 1010.9
20260506020103 46 0.0 0.0 0.00 0.00 0.00 84 1010.9
20260506015603 47 0.0 0.0 0.00 0.00 0.00 83 1010.9
20260506015102 47 0.0 0.0 0.00 0.00 0.00 84 1010.9
20260506014602 47 0.0 0.0 0.00 0.00 0.00 84 1010.9
20260506014102 47 0.0 0.0 0.00 0.00 0.00 81 1011.0
20260506013603 49 0.0 0.0 0.00 0.00 0.00 75 1011.0
20260506013103 48 0.0 0.0 0.00 0.00 0.00 76 1010.9
20260506012603 49 0.0 0.0 0.00 0.00 0.00 75 1010.9
20260506012102 49 0.0 0.0 0.00 0.00 0.00 75 1010.8
20260506011602 49 0.0 0.0 0.00 0.00 0.00 76 1010.8
20260506011102 49 0.0 0.0 0.00 0.00 0.00 76 1010.8
20260506010603 49 0.0 0.0 0.00 0.00 0.00 75 1010.8
20260506005602 49 0.0 0.0 0.00 0.00 0.00 76 1010.9
20260506005102 49 0.0 0.0 0.00 0.00 0.00 77 1010.9
20260506004604 49 0.0 0.0 0.00 0.00 0.00 78 1011.0
20260506004103 49 0.0 0.0 0.00 0.00 0.00 77 1011.1
20260506003609 50 0.0 0.0 0.00 0.00 0.00 78 1011.1
20260506003102 49 0.0 0.0 0.00 0.00 0.00 78 1011.2
20260506002602 49 0.0 0.0 0.00 0.00 0.00 78 1011.2
20260506002102 49 0.0 0.0 0.00 0.00 0.00 78 1011.3
20260506001602 49 0.0 0.0 0.00 0.00 0.00 78 1011.3
20260506001102 50 0.0 0.0 0.00 0.00 0.00 75 1011.3
20260506000601 50 0.0 0.0 0.00 0.00 0.00 77 1011.4
20260505235603 49 0.0 0.0 0.00 0.00 0.00 80 1011.5
20260505235102 49 0.0 0.0 0.00 0.00 0.00 78 1011.4
20260505234602 49 0.0 0.0 0.00 0.00 0.00 78 1011.4
20260505234102 49 0.0 0.0 0.00 0.00 0.00 79 1011.5
20260505233603 50 0.0 0.0 0.00 0.00 0.00 76 1011.4
20260505232602 49 0.0 0.0 0.00 0.00 0.00 79 1011.4
20260505231602 51 0.0 0.0 0.00 0.00 0.00 74 1011.4
20260505231102 51 0.0 0.0 0.00 0.00 0.00 75 1011.3
20260505230602 51 0.0 0.0 0.00 0.00 0.00 75 1011.4
20260505225602 50 0.0 0.0 0.00 0.00 0.00 77 1011.5
20260505225102 50 0.0 0.0 0.00 0.00 0.00 76 1011.5
20260505224103 51 0.0 0.0 0.00 0.00 0.00 76 1011.5
20260505223602 51 0.0 0.0 0.00 0.00 0.00 76 1011.6
20260505222602 50 0.0 0.0 0.00 0.00 0.00 76 1011.6
20260505222102 50 0.0 0.0 0.00 0.00 0.00 77 1011.6
20260505221602 50 0.0 0.0 0.00 0.00 0.00 76 1011.6
20260505221103 50 0.0 0.0 0.00 0.00 0.00 76 1011.6
20260505220602 51 0.0 0.0 0.00 0.00 0.00 75 1011.8
20260505215602 50 0.0 0.0 0.00 0.00 0.00 75 1011.8
20260505215102 50 0.0 0.0 0.00 0.00 0.00 76 1011.8
20260505214603 51 0.0 0.0 0.00 0.00 0.00 73 1011.8
20260505214107 51 0.0 0.0 0.00 0.00 0.00 74 1011.9
20260505213603 50 0.0 0.0 0.00 0.00 0.00 74 1011.8
20260505213103 51 0.0 0.0 0.00 0.00 0.00 75 1011.8
20260505212602 51 0.0 0.0 0.00 0.00 0.00 77 1011.8
20260505212104 51 0.0 0.0 0.00 0.00 0.00 78 1011.8
20260505211602 51 0.0 0.0 0.00 0.00 0.00 78 1011.9
20260505211103 51 0.0 0.0 0.00 0.00 0.00 76 1011.9
20260505210602 52 0.0 0.0 0.00 0.00 0.00 75 1011.8
20260505205602 51 0.0 0.0 0.00 0.00 0.00 75 1011.8
20260505205102 51 0.0 0.0 0.00 0.00 0.00 75 1011.9
20260505204602 51 0.0 0.0 0.00 0.00 0.00 73 1011.8
20260505204103 52 0.0 0.0 0.00 0.00 0.00 74 1011.7
20260505203603 51 0.0 0.0 0.00 0.00 0.00 75 1011.6
20260505203102 51 0.0 0.0 0.00 0.00 0.00 75 1011.6
20260505202602 52 0.0 0.0 0.00 0.00 0.00 74 1011.5
20260505201603 52 0.0 0.0 0.00 0.00 0.00 74 1011.4
20260505201102 52 0.0 0.0 0.00 0.00 0.00 72 1011.3
20260505200602 51 0.0 0.0 0.00 0.00 0.00 73 1011.1
20260505200103 52 0.0 0.0 0.00 0.00 0.00 74 1011.1
20260505195603 52 0.0 0.0 0.00 0.00 0.00 74 1011.1
20260505195103 53 0.0 0.0 0.00 0.00 0.00 74 1011.1
20260505194651 53 0.0 0.0 0.00 0.00 0.00 72 1011.1
20260505193603 53 0.0 0.0 0.00 0.00 0.00 72 1011.1
20260505193103 53 0.0 0.0 0.00 0.00 0.00 73 1011.1
20260505192602 54 0.0 0.0 0.00 0.00 0.00 71 1011.0
20260505192102 53 0.0 0.0 0.00 0.00 0.00 71 1010.9
20260505191603 53 0.0 0.0 0.00 0.00 0.00 71 1010.9
20260505191102 53 0.0 0.0 0.00 0.00 0.00 72 1010.8
20260505190603 53 0.0 0.0 0.00 0.00 0.00 69 1010.7
20260505185603 53 0.0 0.0 0.00 0.00 0.00 69 1010.7
20260505185103 53 0.0 0.0 0.00 0.00 0.00 69 1010.6
20260505184602 52 0.0 0.0 0.00 0.00 0.00 71 1010.6
20260505184103 53 0.0 0.0 0.00 0.00 0.00 69 1010.5
20260505183602 53 0.0 0.0 0.00 0.00 0.00 68 1010.5
20260505182603 53 0.0 0.0 0.00 0.00 0.00 71 1010.4
20260505181603 53 0.0 0.0 0.00 0.00 0.00 75 1010.3
20260505181102 53 0.0 0.0 0.00 0.00 0.00 74 1010.3
20260505180603 53 0.0 0.0 0.00 0.00 0.00 71 1010.3
20260505175602 54 0.0 0.0 0.00 0.00 0.00 64 1010.3
20260505175103 54 0.0 0.0 0.00 0.00 0.00 73 1010.3
20260505174102 55 0.0 0.0 0.00 0.00 0.00 69 1010.3
20260505173602 55 0.0 0.0 0.00 0.00 0.00 70 1010.3
20260505173103 55 0.0 0.0 0.00 0.00 0.00 70 1010.3
20260505172603 55 0.0 0.0 0.00 0.00 0.00 59 1010.3
20260505172102 56 0.0 0.0 0.00 0.00 0.00 58 1010.4
20260505171602 56 0.0 0.0 0.00 0.00 0.00 59 1010.5
20260505170603 57 0.0 0.0 0.00 0.00 0.00 56 1010.7
20260505165102 57 0.0 0.0 0.00 0.00 0.00 59 1010.9
20260505164602 57 0.0 0.0 0.00 0.00 0.00 60 1010.9
20260505164102 56 0.0 0.0 0.00 0.00 0.00 62 1011.0
20260505163603 55 0.0 0.0 0.00 0.00 0.00 64 1011.1
20260505163102 55 0.0 0.0 0.00 0.00 0.00 67 1011.1
20260505162603 55 0.0 0.0 0.00 0.00 0.00 67 1011.1
20260505162102 54 0.0 0.0 0.00 0.00 0.00 71 1011.3
20260505161602 53 0.0 0.0 0.00 0.00 0.00 73 1011.4
20260505161102 53 0.0 0.0 0.00 0.00 0.00 69 1011.5
20260505160603 53 0.0 0.0 0.00 0.00 0.00 69 1011.5
20260505153103 54 0.0 0.0 0.00 0.00 0.00 60 1011.1
20260505152602 54 0.0 0.0 0.00 0.00 0.00 55 1010.9
20260505152102 55 0.0 0.0 0.00 0.00 0.00 50 1010.5
20260505151602 55 0.0 0.0 0.00 0.00 0.00 50 1010.3
20260505151103 56 0.0 0.0 0.00 0.00 0.00 53 1010.3
20260505150603 56 0.0 0.0 0.00 0.00 0.00 53 1010.2
20260505140602 58 0.0 0.0 0.00 0.00 0.00 47 1009.8
20260505124602 59 0.0 0.0 0.00 0.00 0.00 42 1009.9